Flag for Barbados Weather past 2 weeks in Bridgetown, Barbados

Now
86 °F

Broken clouds.


Feels Like: 95 °F
Forecast: 80 / 87 °F
Wind: 16 mph from Northeast

Location: Grantley Adams

Current Time: Oct 21, 2014 at 10:31:55 AM

Latest Report: Oct 21, 2014 at 10:00 AM


Visibility: N/A

Pressure: 29.92 "Hg

Humidity: 70%

Dew point: 75 °F

Location of BridgetownLocation

Historic Weather in Bridgetown — Graph

°F

Bridgetown temperature yesterday

Maximum temperature yesterday: 88 °F (at 11:00 AM)
Minimum temperature yesterday: 75 °F (at 1:00 AM)
Average temperature yesterday: 81 °F

Past Weeks' High & Low Weather Summary

 TemperatureHumidityPressure
High88 °F (Oct 6, 11:00 AM)100% (Oct 7, 5:00 AM)30.01 "Hg (Oct 7, 5:00 AM)
Low73 °F (Oct 19, 1:00 AM)62% (Oct 19, 9:00 AM)29.77 "Hg (Oct 9, 4:00 PM)
Average82 °F81%29.90 "Hg
* Reported Oct 6 9:00 AM — Oct 21 9:00 AM, Bridgetown, Weather by CustomWeather, © 2014

Note: Actual official high and low records may vary slightly from our data, if they occured in-between our weather recording intervals... More about our weather records

Advertising

Bridgetown weather history for previous 24 hours

 ConditionsComfort  
Time TempWeatherWind HumidityBarometerVisibility
9:00 AM
Oct 21
86 °FBroken clouds.16 mph70%29.92 "HgN/A
8:00 AM84 °FBroken clouds.13 mph70%29.92 "HgN/A
7:00 AM81 °FPartly sunny.8 mph79%29.89 "HgN/A
6:00 AM77 °FPartly sunny.8 mph100%29.86 "HgN/A
5:00 AM77 °FPassing clouds.8 mph89%29.86 "HgN/A
4:00 AM77 °FPassing clouds.8 mph89%29.86 "HgN/A
3:00 AM77 °FPassing clouds.7 mph89%29.86 "HgN/A
2:00 AM77 °FPassing clouds.7 mph89%29.89 "HgN/A
1:00 AM75 °FPassing clouds.6 mph89%29.89 "HgN/A
12:00 AM77 °FPassing clouds.7 mph83%29.92 "HgN/A
11:00 PM
Oct 20
79 °FPassing clouds.7 mph79%29.92 "HgN/A
10:00 PM77 °FPassing clouds.7 mph89%29.92 "HgN/A
9:00 PM79 °FPassing clouds.6 mph79%29.92 "HgN/A
8:00 PM79 °FPassing clouds.7 mph84%29.89 "HgN/A
7:00 PM79 °FPassing clouds.7 mph84%29.89 "HgN/A
6:00 PM81 °FPassing clouds.8 mph79%29.86 "HgN/A
5:00 PM84 °FPartly sunny.8 mph70%29.86 "HgN/A
4:00 PM84 °FPartly sunny.10 mph70%29.86 "HgN/A
3:00 PM86 °FPartly sunny.13 mph66%29.86 "HgN/A
2:00 PM88 °FScattered clouds.13 mph66%29.89 "HgN/A
1:00 PM88 °FScattered clouds.13 mph66%29.89 "HgN/A
12:00 PM88 °FPartly sunny.14 mph66%29.92 "HgN/A
11:00 AM88 °FPartly sunny.14 mph66%29.95 "HgN/A
10:00 AM86 °FPartly sunny.14 mph70%29.95 "HgN/A
Weather by CustomWeather, © 2014

See weather overviewHow to use our weather pages